map of MEG home
MEG - Airport
Location
City:  Malange, Malange, Angola
ICAO:FNMA
IATA:MEG

Details
Type:Airport (Aerodrome, Airfield)
Latitude:931'30"S (-9.525085)
Longitude:1618'45"E (16.312406)
Datum:WGS 1984
Elevation:3868 ft (1179 m)
Variation:2.54W (WMM2015v2 magnetic declination)
0.15 annual change
Runways:1
Longest:7283 × 98 ft (2220 × 30 m), paved

Time
Time Zone:UTC+1
Local Time:

Weather
METAR:FNMA 041300Z 22007KT 9999 SCT015 BKN040 26/23 Q1014

Related Locations
Nearby:
Farthest:PLPA: 12159 mi / 19568 km
Palmyra Island Atoll [Palmyra Airport (Cooper)], UM

Find:

   beyond  
but within

Other Information
Maps:
NOTAMs:
Links:
Sources:

  
  • flag of Angola
  

Sectional Chart

Flight Planning
at skyvector.com

Satellite Image

Google Maps Satellite view

 

Copyright © 2004-2019 Karl L. Swartz. All rights reserved.
The Great Circle Mapper name and logo are trademarks of the Great Circle Mapper.
All other trademarks mentioned herein belong to their respective owners.
Please see credits for attibutions and further copyright information.

  Follow gcmap on Facebook Follow gcmap on Twitter GCmap on LinkedIn

hCard Microformat

Geo Microformat